Regional Weather Roundup
Issued by NWS

Home | Current Version | Previous Version | Text Only | Print | Product List | Glossary Off
Versions: 1 2 3 4 5 6 7 8 9 10 11 12 13 14 15 16 17 18 19 20 21 22 23 24 25 26 27 28 29 30 31 32 33 34 35 36 37 38 39 40 41 42 43 44 45 46 47 48 49 50

000
ASUS43 KIND 042109
RWRIN

WEATHER ROUNDUP FOR INDIANA
NATIONAL WEATHER SERVICE INDIANAPOLIS IN
500 PM EDT FRI SEP 04 2015

NOTE: "FAIR" INDICATES FEW OR NO CLOUDS BELOW 12,000 FEET WITH NO
SIGNIFICANT WEATHER AND/OR OBSTRUCTIONS TO VISIBILITY.

* - STATION DOES NOT REPORT WEATHER SUCH AS PRECIPITATION OR FOG.

+ - STATION NOT QUALITY CONTROLLED BY THE NATIONAL WEATHER SERVICE.
    USE DATA WITH CAUTION...ESPECIALLY DEWPOINT AND RELATIVE
    HUMIDITY OBSERVATIONS.

INZ001>003-010>013-019-020-042200-
NORTHWEST INDIANA

CITY           SKY/WX    TMP DP  RH WIND       PRES   REMARKS
GARY /AIRPORT/ PTSUNNY   77  68  73 NE8       30.02F
KNOX *+        FAIR      72  70  94 S6        30.02R
LA PORTE +     FAIR      82  75  80 CALM      30.03R
MICHIGAN CITY+ FAIR      73  70  88 N6        30.03R
MONTICELLO +   LGT RAIN  71  71  98 S5        30.03F
RENSSELAER +   FAIR      86  73  66 E8        30.01S
VALPARAISO     FAIR      82  73  74 NE6       30.02R

$$

LMZ046-743>745-042200-
SOUTHERN LAKE MICHIGAN

STATION/POSITION TIME  TEMP    WIND        PRES    WAVE
                       AIR SEA DIR/SP/G            HT
                 (UTC) (F)     (DEG/KT/KT) (MB)    (FT)
BURNS HARBOR     2000   72      20/  8/  9 1016.9F
MICHIGAN CITY    2000   70      20/  9/  9   N/A
5NW MICH CITY    2100   71 74   50/  6/ 10   N/A     2

$$

INZ004-005-014>016-021>024-042200-
NORTH CENTRAL INDIANA

CITY           SKY/WX    TMP DP  RH WIND       PRES   REMARKS
ELKHART        MOSUNNY   81  72  74 NW7       30.02S
GOSHEN         FAIR      80  72  76 SW6       30.03R
LOGANSPORT +   DRIZZLE   70  63  78 W9G18     30.04S
PERU/GRISSOM   PTSUNNY   76  66  71 NW10      30.04R
ROCHESTER +    TSTM      72  63  73 CALM      30.05S
SOUTH BEND     FAIR      77  69  76 NW6       30.04R
WARSAW +       LGT RAIN  72  63  73 S5        30.05R

$$

INZ006>009-017-018-025>027-042200-
NORTHEAST INDIANA

CITY           SKY/WX    TMP DP  RH WIND       PRES   REMARKS
ANGOLA *+      SUNNY     79  73  83 CALM      30.04R
AUBURN +       FAIR      77  70  78 W5        30.03R
FORT WAYNE     TSTM      66  62  87 SW24G31   30.08R FOG
HUNTINGTON +   TSTM      63  58  82 N13G25    30.07R

$$

INZ028-029-035-036-043>045-051>053-042200-
WEST CENTRAL INDIANA

CITY           SKY/WX    TMP DP  RH WIND       PRES   REMARKS
CRAWFORDSVL +  FAIR      89  61  39 CALM      30.02R
GREENCASTLE +  FAIR      90  63  40 CALM      30.01S
LAFAYETTE      FAIR      80  64  58 NE13      30.01R
TERRE HAUTE    FAIR      92  66  42 SW8       30.00S

$$

INZ030>032-037>040-046>048-054>057-064-065-042200-
CENTRAL INDIANA

CITY           SKY/WX    TMP DP  RH WIND       PRES   REMARKS
FISHERS *+     FAIR      86  75  70 CALM      30.01R HX  95
FRANKFORT +    FAIR      85  67  54 NW15G21   30.05R
GREENWOOD *+   FAIR      91  63  38 SW5       30.01F
INDIANAPOLIS   PTSUNNY   91  66  43 SW12G21   29.99F
-EAGLE CREEK   FAIR      91  66  43 W8        29.99F
KOKOMO *+      FAIR      77  57  50 N9        30.03S
MARION +       CLOUDY    73  50  43 N15G33    30.05R
MT COMFORT *+  CLOUDY    75  63  64 NE18G30   30.04R VSB 3/4
SHELBYVILLE    FAIR      93  68  43 SW12      29.99F HX  97
ZIONSVILLE +   FAIR      89  64  43 W8        30.02S

$$

INZ033-034-041-042-049-050-058-059-042200-
EAST CENTRAL INDIANA

CITY           SKY/WX    TMP DP  RH WIND       PRES   REMARKS
MUNCIE         FAIR      89  66  46 NW12G18   30.01R

$$

INZ060-061-067>069-081>083-085>088-042200-
SOUTHWEST INDIANA

CITY           SKY/WX    TMP DP  RH WIND       PRES   REMARKS
EVANSVILLE     FAIR      94  62  34 CALM      30.00F
HUNTINGBURG *+ PTSUNNY   93  64  38 W6        30.00F HX  95
WASHINGTON +   FAIR      93  56  29 SW3       29.99F

$$

INZ062-063-066-070>080-084-089>092-042200-
SOUTH CENTRAL AND SOUTHEAST INDIANA

CITY           SKY/WX    TMP DP  RH WIND       PRES   REMARKS
BLOOMINGTON    FAIR      91  65  41 VRB5      30.02F
MADISON *+     FAIR      90  63  40 S3        30.03S
NORTH VERNON + FAIR      93  63  36 W7        30.01F
SEYMOUR +      FAIR      97  66  36 SW6       29.99F HX 100

$$




USA.gov is the U.S. government's official web portal to all federal, state and local government web resources and services.